This is the latest recevied weather packets stored in our database for station/object FW0690. If no packets are shown the sender has not sent any weather packets the latest 10 day(s).
| Time | Temp. | Humidity | Pressure | Rain* | Wind** | Luminosity | Snow |
|---|---|---|---|---|---|---|---|
| 1777464870 | 16.11° C | 34% | 1016.7 hPa | - | - | 34 W/m² | - |
| 1777464510 | 16.11° C | 33% | 1016.7 hPa | - | - | 33 W/m² | - |
| 1777464150 | 15.56° C | 33% | 1016.9 hPa | - | - | 33 W/m² | - |
| 1777463791 | 16.67° C | 33% | 1016.9 hPa | - | - | 35 W/m² | - |
| 1777463430 | 16.67° C | 32% | 1016.9 hPa | - | - | 37 W/m² | - |
| 1777463070 | 16.67° C | 32% | 1016.9 hPa | - | - | 45 W/m² | - |
| 1777462710 | 17.22° C | 32% | 1016.9 hPa | - | - | 56 W/m² | - |
| 1777462350 | 16.67° C | 32% | 1017 hPa | - | - | 55 W/m² | - |
| 1777461990 | 16.67° C | 31% | 1017 hPa | - | - | 54 W/m² | - |
| 1777461630 | 17.22° C | 31% | 1017.1 hPa | - | - | 54 W/m² | - |
| 1777461270 | 17.78° C | 30% | 1017.1 hPa | - | - | 58 W/m² | - |
| 1777460910 | 16.67° C | 30% | 1017 hPa | - | - | 64 W/m² | - |
| 1777460550 | 17.22° C | 30% | 1017 hPa | - | - | 55 W/m² | - |
| 1777460190 | 17.78° C | 30% | 1017 hPa | - | - | 50 W/m² | - |
| 1777459830 | 17.78° C | 31% | 1017.1 hPa | - | - | 61 W/m² | - |
| 1777459470 | 17.22° C | 31% | 1017.2 hPa | - | - | 65 W/m² | - |
| 1777459110 | 17.22° C | 30% | 1017.2 hPa | - | - | 60 W/m² | - |
| 1777458750 | 17.22° C | 30% | 1017.3 hPa | - | - | 63 W/m² | - |
| 1777458390 | 17.78° C | 29% | 1017.4 hPa | - | - | 68 W/m² | - |
| 1777458030 | 18.33° C | 29% | 1017.3 hPa | - | - | 75 W/m² | - |
| 1777457670 | 18.89° C | 29% | 1017.3 hPa | - | - | 76 W/m² | - |
| 1777457310 | 17.78° C | 30% | 1017.4 hPa | - | - | 184 W/m² | - |
| 1777456950 | 17.22° C | 30% | 1017.3 hPa | - | - | 108 W/m² | - |
| 1777456590 | 17.78° C | 30% | 1017.2 hPa | - | - | 82 W/m² | - |
| 1777456230 | 17.78° C | 30% | 1017.3 hPa | - | - | 111 W/m² | - |
* Rain since midnight (hover to see other rain measurements)
** Current wind speed in m/s (hover to see current wind gust speed)